TimeEDT,TemperatureF,Dew PointF,Humidity,Sea Level PressureIn,VisibilityMPH,Wind Direction,Wind SpeedMPH,Gust SpeedMPH,PrecipitationIn,Events,Conditions,WindDirDegrees,DateUTC
12:53 AM,63.0,59.0,87,30.15,10.0,Calm,Calm,-,N/A,,Clear,0,2014-04-13 04:53:00
1:53 AM,63.0,59.0,87,30.15,9.0,Calm,Calm,-,N/A,,Clear,0,2014-04-13 05:53:00
2:53 AM,64.0,57.9,80,30.16,10.0,Calm,Calm,-,N/A,,Mostly Cloudy,0,2014-04-13 06:53:00
3:53 AM,64.9,57.0,75,30.15,10.0,SSE,4.6,-,N/A,,Mostly Cloudy,160,2014-04-13 07:53:00
4:53 AM,64.0,55.9,75,30.14,10.0,SSE,4.6,-,N/A,,Overcast,150,2014-04-13 08:53:00
5:53 AM,61.0,55.0,81,30.13,10.0,SSE,4.6,-,N/A,,Clear,160,2014-04-13 09:53:00
6:53 AM,59.0,55.9,90,30.16,10.0,Calm,Calm,-,N/A,,Mostly Cloudy,0,2014-04-13 10:53:00
7:53 AM,62.1,55.9,80,30.17,10.0,South,3.5,-,N/A,,Scattered Clouds,170,2014-04-13 11:53:00
8:53 AM,66.0,57.9,75,30.18,10.0,SSE,4.6,-,N/A,,Clear,150,2014-04-13 12:53:00
9:53 AM,71.1,59.0,66,30.18,10.0,SSE,8.1,-,N/A,,Clear,150,2014-04-13 13:53:00
10:53 AM,75.0,59.0,57,30.19,10.0,SSE,9.2,-,N/A,,Clear,160,2014-04-13 14:53:00
11:53 AM,77.0,57.9,52,30.18,10.0,SSE,6.9,-,N/A,,Clear,160,2014-04-13 15:53:00
12:53 PM,80.1,55.9,43,30.16,10.0,SSE,9.2,-,N/A,,Clear,160,2014-04-13 16:53:00
1:53 PM,82.0,53.1,37,30.13,10.0,South,10.4,-,N/A,,Partly Cloudy,170,2014-04-13 17:53:00
2:53 PM,82.0,54.0,38,30.11,10.0,Variable,3.5,-,N/A,,Clear,0,2014-04-13 18:53:00
3:53 PM,82.0,53.1,37,30.07,10.0,SE,12.7,-,N/A,,Clear,130,2014-04-13 19:53:00
4:53 PM,81.0,52.0,36,30.06,10.0,SSE,9.2,-,N/A,,Clear,160,2014-04-13 20:53:00
5:53 PM,82.0,54.0,38,30.05,10.0,SE,8.1,-,N/A,,Partly Cloudy,140,2014-04-13 21:53:00
6:53 PM,80.1,52.0,38,30.05,10.0,SE,6.9,-,N/A,,Clear,140,2014-04-13 22:53:00
8:53 PM,71.1,55.0,57,30.04,10.0,Calm,Calm,-,0.00,Rain,Light Rain,0,2014-04-14 00:53:00
9:53 PM,68.0,55.9,65,30.05,10.0,Calm,Calm,-,0.00,,Partly Cloudy,0,2014-04-14 01:53:00
10:53 PM,66.9,57.0,70,30.05,10.0,Calm,Calm,-,N/A,,Mostly Cloudy,0,2014-04-14 02:53:00
11:53 PM,64.0,57.0,78,30.04,10.0,ESE,6.9,-,N/A,,Partly Cloudy,110,2014-04-14 03:53:00